| time (UTC) | temp F | wind direction | speed knots | gust knots | rain 1hr in | rain 24hr in | rain mn in | humidity % | barometer mb |
| 20260503013024 | 63 | 69 | 2.6 | 5.2 | 0.00 | 0.00 | 0.00 | 36 | 1012.2 |
| 20260503011514 | 64 | 46 | 2.6 | 6.1 | 0.00 | 0.00 | 0.00 | 36 | 1012.2 |
| 20260503010013 | 64 | 5 | 1.7 | 5.2 | 0.00 | 0.00 | 0.00 | 35 | 1012.3 |
| 20260503004514 | 65 | 82 | 4.3 | 7.0 | 0.00 | 0.00 | 0.00 | 35 | 1012.4 |
| 20260503003013 | 65 | 294 | 0.0 | 3.5 | 0.00 | 0.00 | 0.00 | 34 | 1012.5 |
| 20260503001512 | 66 | 339 | 3.5 | 6.1 | 0.00 | 0.00 | 0.00 | 33 | 1012.5 |
| 20260503000011 | 65 | 53 | 2.6 | 7.8 | 0.00 | 0.00 | 0.00 | 34 | 1012.5 |
| 20260502234511 | 65 | 346 | 1.7 | 4.3 | 0.00 | 0.00 | 0.00 | 34 | 1012.6 |
| 20260502233011 | 65 | 49 | 2.6 | 7.8 | 0.00 | 0.00 | 0.00 | 34 | 1012.9 |
| 20260502231517 | 65 | 36 | 1.7 | 8.7 | 0.00 | 0.00 | 0.00 | 34 | 1013.1 |
| 20260502230010 | 65 | 348 | 2.6 | 7.8 | 0.00 | 0.00 | 0.00 | 34 | 1013.2 |
| 20260502224511 | 66 | 323 | 0.9 | 7.0 | 0.00 | 0.00 | 0.00 | 33 | 1013.4 |
| 20260502223010 | 66 | 5 | 3.5 | 7.8 | 0.00 | 0.00 | 0.00 | 33 | 1013.5 |
| 20260502221508 | 65 | 304 | 2.6 | 8.7 | 0.00 | 0.00 | 0.00 | 34 | 1013.8 |
| 20260502220009 | 66 | 336 | 5.2 | 7.8 | 0.00 | 0.00 | 0.00 | 34 | 1013.9 |
| 20260502214506 | 66 | 273 | 2.6 | 7.0 | 0.00 | 0.00 | 0.00 | 34 | 1014.1 |
| 20260502213004 | 65 | 279 | 5.2 | 9.6 | 0.00 | 0.00 | 0.00 | 35 | 1014.3 |
| 20260502211502 | 65 | 78 | 1.7 | 11.3 | 0.00 | 0.00 | 0.00 | 35 | 1014.3 |
| 20260502210001 | 65 | 11 | 4.3 | 8.7 | 0.00 | 0.00 | 0.00 | 36 | 1014.5 |
| 20260502204600 | 64 | 317 | 3.5 | 7.0 | 0.00 | 0.00 | 0.00 | 36 | 1014.7 |
| 20260502203059 | 64 | 355 | 6.1 | 10.4 | 0.00 | 0.00 | 0.00 | 36 | 1014.8 |
| 20260502201605 | 64 | 302 | 6.1 | 13.9 | 0.00 | 0.00 | 0.00 | 37 | 1015.0 |
| 20260502200058 | 64 | 355 | 3.5 | 11.3 | 0.00 | 0.00 | 0.00 | 36 | 1015.1 |
| 20260502194614 | 64 | 24 | 4.3 | 12.2 | 0.00 | 0.00 | 0.00 | 35 | 1015.3 |
| 20260502193107 | 63 | 349 | 6.1 | 10.4 | 0.00 | 0.00 | 0.00 | 36 | 1015.4 |
| 20260502191601 | 63 | 336 | 6.1 | 13.9 | 0.00 | 0.00 | 0.00 | 38 | 1015.6 |
| 20260502190054 | 63 | 55 | 2.6 | 10.4 | 0.00 | 0.00 | 0.00 | 37 | 1015.6 |
| 20260502184602 | 61 | 29 | 7.0 | 13.0 | 0.00 | 0.00 | 0.00 | 39 | 1015.8 |
| 20260502183052 | 63 | 100 | 7.8 | 12.2 | 0.00 | 0.00 | 0.00 | 38 | 1015.8 |
| 20260502181552 | 63 | 16 | 6.1 | 13.0 | 0.00 | 0.00 | 0.00 | 38 | 1015.9 |
| 20260502163045 | 61 | 355 | 3.5 | 10.4 | 0.00 | 0.00 | 0.00 | 43 | 1016.0 |
| 20260502161557 | 61 | 15 | 6.1 | 10.4 | 0.00 | 0.00 | 0.00 | 43 | 1016.0 |
| 20260502151530 | 58 | 22 | 5.2 | 8.7 | 0.00 | 0.00 | 0.00 | 45 | 1015.8 |
| 20260502123006 | 45 | 9 | 2.6 | 7.8 | 0.00 | 0.00 | 0.00 | 60 | 1015.1 |
| 20260502121504 | 47 | 13 | 6.1 | 11.3 | 0.00 | 0.00 | 0.00 | 57 | 1015.0 |
| 20260502114601 | 48 | 40 | 4.3 | 10.4 | 0.00 | 0.00 | 0.00 | 55 | 1014.7 |
| 20260502113059 | 49 | 76 | 7.0 | 13.0 | 0.00 | 0.00 | 0.00 | 54 | 1014.3 |
| 20260502111557 | 50 | 67 | 7.0 | 13.9 | 0.00 | 0.00 | 0.00 | 52 | 1014.2 |
| 20260502110056 | 50 | 13 | 3.5 | 13.9 | 0.00 | 0.00 | 0.00 | 51 | 1014.1 |
| 20260502104555 | 49 | 37 | 5.2 | 11.3 | 0.00 | 0.00 | 0.00 | 52 | 1013.7 |
| 20260502103051 | 50 | 34 | 5.2 | 12.2 | 0.00 | 0.00 | 0.00 | 49 | 1013.6 |
| 20260502101556 | 50 | 46 | 6.1 | 10.4 | 0.00 | 0.00 | 0.00 | 49 | 1013.5 |
| 20260502071529 | 44 | 301 | 1.7 | 2.6 | 0.00 | 0.00 | 0.00 | 52 | 1012.2 |
| 20260502070026 | 44 | 304 | 1.7 | 3.5 | 0.00 | 0.00 | 0.00 | 51 | 1012.2 |
| 20260502064520 | 45 | 304 | 0.9 | 1.7 | 0.00 | 0.00 | 0.00 | 49 | 1012.2 |
| 20260502063019 | 46 | 302 | 0.9 | 3.5 | 0.00 | 0.00 | 0.00 | 48 | 1012.2 |
| 20260502061514 | 48 | 304 | 2.6 | 4.3 | 0.00 | 0.00 | 0.00 | 43 | 1012.2 |
| 20260502060010 | 51 | 317 | 1.7 | 3.5 | 0.00 | 0.00 | 0.00 | 39 | 1012.0 |
| 20260502054520 | 53 | 331 | 0.0 | 3.5 | 0.00 | 0.00 | 0.00 | 38 | 1012.0 |
| 20260502053010 | 51 | 310 | 2.6 | 3.5 | 0.00 | 0.00 | 0.00 | 39 | 1012.0 |
| 20260502051518 | 53 | 302 | 1.7 | 4.3 | 0.00 | 0.00 | 0.00 | 38 | 1011.9 |
| 20260502050027 | 54 | 306 | 0.9 | 4.3 | 0.00 | 0.00 | 0.00 | 36 | 1011.9 |
| 20260502044508 | 55 | 317 | 0.0 | 1.7 | 0.00 | 0.00 | 0.00 | 33 | 1011.7 |
| 20260502043008 | 55 | 90 | 0.9 | 2.6 | 0.00 | 0.00 | 0.00 | 36 | 1011.6 |
| 20260502041508 | 56 | 310 | 0.9 | 1.7 | 0.00 | 0.00 | 0.00 | 35 | 1011.7 |
| 20260502040007 | 55 | 310 | 2.6 | 3.5 | 0.00 | 0.00 | 0.00 | 37 | 1011.8 |
| 20260502034511 | 60 | 303 | 0.9 | 3.5 | 0.00 | 0.00 | 0.00 | 31 | 1011.7 |
| 20260502033015 | 61 | 101 | 0.9 | 5.2 | 0.00 | 0.00 | 0.00 | 28 | 1011.4 |
| 20260502031506 | 61 | 33 | 0.0 | 1.7 | 0.00 | 0.00 | 0.00 | 32 | 1011.2 |
| 20260502030015 | 64 | 33 | 0.9 | 1.7 | 0.00 | 0.00 | 0.00 | 27 | 1011.1 |
| 20260502024505 | 65 | 33 | 0.9 | 1.7 | 0.00 | 0.00 | 0.00 | 25 | 1010.9 |
| 20260502023005 | 66 | 33 | 0.0 | 0.0 | 0.00 | 0.00 | 0.00 | 25 | 1010.8 |
| 20260502021504 | 69 | 33 | 0.0 | 0.0 | 0.00 | 0.00 | 0.00 | 22 | 1010.7 |
| 20260502020004 | 71 | 33 | 0.0 | 0.0 | 0.00 | 0.00 | 0.00 | 21 | 1010.8 |
| 20260502014503 | 72 | 33 | 0.9 | 2.6 | 0.00 | 0.00 | 0.00 | 20 | 1010.8 |